Regional Weather Roundup
Issued by NWS Cleveland, OH

Home | Current Version | Previous Version | Graphics & Text | Print | Product List | Glossary On
Versions: 1 2 3 4 5 6 7 8 9 10 11 12 13 14 15 16 17 18 19 20 21 22 23 24 25 26 27 28 29 30 31 32 33 34 35 36 37 38 39 40 41 42 43 44 45 46 47 48 49 50
000
ASUS41 KCLE 292210
RWRCLE
OHIO REGIONAL WEATHER ROUNDUP
NATIONAL WEATHER SERVICE WILMINGTON, OH
600 PM EDT FRI MAY 29 2015

NOTE: "FAIR" INDICATES FEW OR NO CLOUDS BELOW 12,000 FEET WITH NO
SIGNIFICANT WEATHER AND/OR OBSTRUCTIONS TO VISIBILITY.

OHZ001>008-015>018-024>027-034-035-043-044-292300-
   NORTHWEST OHIO

CITY           SKY/WX    TMP DP  RH WIND       PRES   REMARKS
DEFIANCE       MOSUNNY   83  65  54 S14G24    30.00F
FINDLAY        MOSUNNY   83  67  58 S16       30.03F
TOLEDO EXPRESS MOSUNNY   82  64  54 S7        30.01F
TOLEDO EXEC    MOSUNNY   83  66  56 S10       30.02F
LIMA           LGT RAIN  82  65  56 S13       30.04F
$$

OHZ009>014-019>023-028>033-038-089-292300-
   NORTHEAST OHIO

CITY           SKY/WX    TMP DP  RH WIND       PRES   REMARKS
CLE-HOPKINS    PTSUNNY   84  65  52 SW10      30.07F
CLE-LAKEFRONT  PTSUNNY   76  68  76 N3        30.05F
CUY CO. ARPT   PTSUNNY   79  70  73 CALM      30.09F
LORAIN-ELYRIA  MOSUNNY   84  65  52 SW15G22   30.06F
ASHTABULA      LGT RAIN  75  68  78 S5        30.08F
AKRON-CANTON   PTSUNNY   82  64  54 S12       30.09F
WOOSTER        SUNNY     81  66  60 SW12      30.09F
MANSFIELD      SUNNY     82  65  56 S15G21    30.08F
YOUNGSTOWN     PTSUNNY   84  64  50 SW13      30.10F
$$

OHZ042-051>053-060>062-070>072-077>081-292300-
  SOUTHWEST OHIO

CITY           SKY/WX    TMP DP  RH WIND       PRES   REMARKS
CINC-COVINGTON PTSUNNY   80  65  59 S12G21    30.07F
CINC-LUNKEN    MOSUNNY   82  67  60 S13       30.07S
HAMILTON       MOSUNNY   84  66  54 S9G16     30.07S
DAYTON         PTSUNNY   84  63  49 S16G23    30.07F
WRIGHT-PAT AFB MOSUNNY   85  64  49 S15       30.06F
DAYTON GENERAL MOSUNNY   82  64  54 S13       30.07F
WILMINGTON     MOSUNNY   82  63  52 S16       30.08F
$$

OHZ036-037-039>041-045>050-054>059-063>069-073>076-082>088-292300-
  CENTRAL AND SOUTHEAST OHIO

CITY           SKY/WX    TMP DP  RH WIND       PRES   REMARKS
COLUMBUS       PTSUNNY   83  65  54 S10       30.07F
OSU AIRPORT    MOSUNNY   84  63  49 S14G20    30.07F
BOLTON FIELD   MOSUNNY   84  64  51 S14G22    30.08F
RICKENBACK AFB MOSUNNY   82  66  58 S13       30.07F
NEWARK         MOSUNNY   83  67  58 S10       30.09F
MARION         MOSUNNY   83  62  49 S15G24    30.06F
LANCASTER      MOSUNNY   82  65  56 S9        30.10F
ZANESVILLE     MOSUNNY   82  65  56 SW7       30.11S
NEW PHILLY     MOSUNNY   85  66  53 S9        30.10F
$$



USA.gov is the U.S. government's official web portal to all federal, state and local government web resources and services.